Weather History for Haines Junction, YT

Change the Weather History Date:

Thursday, January 16, 2014

  Actual Average Record
Temperature  
Mean Temperature 38 °F -  
Max Temperature 49 °F - - ()
Min Temperature 28 °F - - ()
Degree Days  
Heating Degree Days 26    
Moisture  
Dew Point 27 °F    
Average Humidity 63    
Maximum Humidity 88    
Minimum Humidity 40    
Precipitation  
Precipitation 2.72 in - - ()
Sea Level Pressure  
Sea Level Pressure 29.75 in    
Wind  
Wind Speed 6 mph ()    
Max Wind Speed 16 mph    
Max Gust Speed 46 mph    
T = Trace of Precipitation, MM = Missing Value Source: Averaged Metar Reports

Daily Weather History Graph

Daily Weather History Graph

Search for Another Location

Airport:

Trip Planner

Search our weather history database for the weather conditions in past years. The results will help you decide how hot, cold, wet, or windy it might be!

Date:

Astronomy

Jan. 16, 2014 Rise Set
Actual Time 10:01 AM PST 4:39 PM PST
Civil Twilight 9:07 AM PST 5:33 PM PST
Nautical Twilight 8:12 AM PST 6:28 PM PST
Astronomical Twilight 7:21 AM PST 7:20 PM PST
Moon 6:11 PM PST (1/16) 9:30 AM PST (1/16)
Length of Visible Light 8h 25m
Length of Day
6h 37m
Full, 100% of the Moon is Illuminated
Jan 16
Full
Jan 23
Last Quarter
Jan 30
New
Feb 6
First Quarter
Feb 14
Full

Hourly Weather History & Observations

Time (PST) Temp. Windchill Dew Point Humidity Pressure Visibility Wind Dir Wind Speed Gust Speed Precip Events Conditions
12:00 AM 39.4 °F 37.2 °F 17.8 °F 42% 29.93 in - NNE 3.5 mph - 1.58 in   Unknown
1:00 AM 39.0 °F 34.8 °F 16.5 °F 40% 29.93 in - NNE 5.8 mph - N/A   Unknown
2:00 AM 38.7 °F 34.3 °F 18.5 °F 44% 29.92 in - NE 5.8 mph - N/A   Unknown
3:00 AM 36.1 °F 29.3 °F 22.1 °F 57% 29.88 in - ENE 9.2 mph - N/A   Unknown
4:00 AM 35 °F - 23 °F 48% 29.85 in - East 2.3 mph - -  
4:00 AM 34.9 °F - 22.6 °F 61% 29.85 in - East 2.3 mph - N/A   Unknown
5:00 AM 34.5 °F 28.6 °F 26.2 °F 72% 29.80 in - North 6.9 mph - N/A   Unknown
6:00 AM 34.9 °F 29.9 °F 27.3 °F 74% 29.75 in - North 5.8 mph - N/A   Unknown
7:00 AM 35.8 °F 27.3 °F 28.6 °F 75% 29.68 in - North 12.7 mph 20.7 mph N/A   Unknown
8:00 AM 37.2 °F 30.0 °F 29.8 °F 75% 29.64 in - North 10.4 mph - N/A   Unknown
9:00 AM 36.7 °F 31.2 °F 30.7 °F 79% 29.62 in - NW 6.9 mph - N/A   Unknown
10:00 AM 40 °F - 29 °F 55% 29.58 in - NNE 11.5 mph - -  
10:00 AM 40.5 °F 33.6 °F 29.5 °F 65% 29.58 in - NNE 11.5 mph 29.9 mph N/A   Unknown
11:00 AM 39.4 °F 32.7 °F 31.3 °F 73% 29.60 in - North 10.4 mph 18.4 mph N/A   Unknown
12:00 PM 41.4 °F 38.4 °F 29.8 °F 64% 29.58 in - NNE 4.6 mph - N/A   Unknown
1:00 PM 46.9 °F - 27.0 °F 46% 29.55 in - NNE 12.7 mph 28.8 mph N/A   Unknown
2:00 PM 48.0 °F - 25.2 °F 41% 29.53 in - SSW 16.1 mph 33.4 mph 2.71 in   Unknown
3:00 PM 46.9 °F - 26.2 °F 44% 29.60 in - SE 12.7 mph 46.0 mph N/A   Unknown
4:00 PM 43 °F - 30 °F 48% 29.70 in - East 5.8 mph - -  
4:00 PM 43.3 °F 39.9 °F 29.8 °F 59% 29.70 in - East 5.8 mph - N/A   Unknown
5:00 PM 43.2 °F 38.4 °F 28.9 °F 57% 29.70 in - NNE 8.1 mph 17.3 mph N/A   Unknown
6:00 PM 39.6 °F 37.4 °F 29.1 °F 66% 29.74 in - North 3.5 mph - N/A   Unknown
7:00 PM 39.4 °F 37.2 °F 29.1 °F 67% 29.77 in - NW 3.5 mph - N/A   Unknown
8:00 PM 37.4 °F 33.8 °F 29.1 °F 72% 29.83 in - SW 4.6 mph - N/A   Unknown
9:00 PM 28.6 °F - 25.5 °F 88% 29.87 in - North 1.2 mph - N/A   Unknown
10:00 PM 36 °F - 30 °F 71% 29.89 in - NNW 6.9 mph - -  
10:00 PM 34.7 °F 28.8 °F 30.0 °F 83% 29.89 in - NNW 6.9 mph - N/A   Unknown
11:00 PM 33.8 °F 29.6 °F 29.3 °F 84% 29.93 in - NW 4.6 mph - N/A   Unknown